Location: B�hl
(48.6968°N, 8.1352°E)
Time: 00:56:29
(UTC+00:00)

Gbstr 26 Del rocket - Pass Details

Date: 08 March 2021
Orbit: 492 x 1264 km, 51.8° (Epoch: 12 April)

Event Time Altitude Azimuth Distance (km) Brightness Sun altitude
Rises 17:43:40 0° 280° (W) 2,730 8.5 -4.4°
Reaches altitude 10° 17:45:46 10° 285° (WNW) 1,907 7.1 -4.7°
Maximum altitude 17:50:02 60° 6° (N) 760 3.5 -5.4°
Drops below altitude 10° 17:55:17 10° 86° (E) 2,327 5.3 -6.3°
Enters shadow 17:55:53 - 87° (E) 2,557 5.5 -6.4°
